Skip Navigation Links weather.gov 
NOAA logo-Select to go to the NOAA homepage NDBC Title GraphicClick to go to NDBC home page   Select to go to the NWS homepage
Home About Us Contact Us
 
 
    
    Station List

 Data Access
    Mobile Access
    Classic Maps
         Recent
         DART®
    Obs Search
    Ship Obs Report
    BuoyCAMs
    TAO
    DODS
    OceanSITES
    HF Radar
    OSMC
    Dial-A-Buoy
    RSS Feeds Image indicating link to RSS feed access page
    Web Widget
    Web Data Guide
    Maintenance Schedule
    Station Status Report

 Program Info
    TAO
    DART®
    IOOS®

 Publications
    NDBC PEA
    NDBC FONSI
    NDBC DQC Handbook

 Visitor Information
 
USA.gov is the U.S. government's official web portal to all federal, state and local government web resources and services.

Station NKXA2 - Naked Island, AK Image indicating link to RSS feed of recent meteorological observations for station NKXA2

Owned and maintained by Marine Exchange of Alaska
C-MAN Station
58.255 N 134.945 W (58°15'19" N 134°56'42" W)

Site elevation: 12.2 m above mean sea level
Air temp height: 3 m above site elevation
Anemometer height: 3 m above site elevation
Barometer elevation: 15.2 m above mean sea level

Search And Rescue (SAR) Data

Meteorological Observations from Nearby Stations and Ships Image indicating link to RSS feed of recent meteorological observations near station NKXA2

Large icon indicates selected station.
yellow diamond Stations with recent data
red diamond Stations with no data in last 8 hours
     (24 hours for tsunami stations)


Conditions at NKXA2 as of
(5:52 am AKDT)
1352 GMT on 04/26/2019:
     

Click on the graph icon in the table below to see a time series plot of the last five days of that observation.

5-day plot - Wind Direction Wind Direction (WDIR): N ( 350 deg true )
5-day plot - Wind Speed Wind Speed (WSPD): 36 kts
5-day plot - Wind Gust Wind Gust (GST): 52 kts
5-day plot - Atmospheric Pressure Atmospheric Pressure (PRES): 29.91 in
5-day plot - Air Temperature Air Temperature (ATMP): 34.2 °F
5-day plot - Dew Point Dew Point (DEWP): 30.6 °F
5-day plot - Wind Chill Wind Chill (CHILL): 18.7 °F
5-day plot - Wind Speed at 10 Meters Wind Speed at 10 meters (WSPD10M): 43 kts
5-day plot - Wind Speed at 10 Meters Wind Speed at 20 meters (WSPD20M): 45 kts
5-day plot - Wind Speed, Wind Gust and Atmospheric Pressure Combined plot of Wind Speed, Gust, and Air Pressure
Previous observations
5-day plot - Wind Direction 5-day plot - Wind Speed 5-day plot - Wind Gust 5-day plot - Wave Height 5-day plot - Dominant Wave Period 5-day plot - Average Period 5-day plot - Mean Wave Direction 5-day plot - Atmospheric Pressure 5-day plot - Pressure Tendency 5-day plot - Air Temperature 5-day plot - Water Temperature 5-day plot - Dew Point 5-day plot - Salinity 5-day plot - Visibility 5-day plot - Tide (above MLLW)
MM DD TIME
(AKDT)
WDIR WSPD
kts
GST
kts
WVHT
ft
DPD
sec
APD
sec
MWD PRES
in
PTDY
in
ATMP
°F
WTMP
°F
DEWP
°F
SAL
psu
VIS
nmi
TIDE
ft
0426 5:42 am N 26 34----29.91- 34.0- 30.4---
0426 5:33 am N 27 60----29.91- 34.2- 30.7---
0426 5:23 am N 17 41----29.91- 34.2- 30.7---
0426 5:13 amNNE 18 36----29.91- 34.0- 30.6---
0426 5:02 amNNE 23 30----29.91- 33.8- 30.4---
0426 4:52 amNNE 17 31----29.91- 33.8- 30.4---
0426 4:42 am NE 15 32----29.92- 33.8- 30.6---
0426 4:32 am NE 20-----29.92- 33.4- 30.2---
0426 4:22 am NE 22 35----29.93- 33.3- 30.2---
0426 4:12 amENE 22 53----29.92- 33.4- 30.4---
0426 4:02 amENE 16 24----29.92- 33.3- 30.4---
0426 3:52 am E 13 25----29.92- 33.3- 30.0---
0426 3:42 amENE 6 13----29.93- 33.3- 30.0---
0426 3:32 am NE 19 32----29.93- 33.3- 30.2---
0426 3:22 amENE 24-----29.93- 33.3- 30.4---
0426 3:12 amENE 23 38----29.93- 33.3- 30.6---
0426 3:02 amENE 18 31----29.93- 33.3- 30.4---
0426 2:52 amENE 18 24----29.93- 33.6- 30.7---
0426 2:42 am NE 17 26----29.94- 33.4- 30.4---
0426 2:32 am NE 17 21----29.94- 33.4- 30.4---
0426 2:22 amENE 10 17----29.94- 33.4- 30.2---
0426 2:13 am NE 13 20----29.95- 33.4- 30.2---
0426 2:02 am NE 13 25----29.95- 33.3- 30.2---
0426 1:52 am NE 14 22----29.95- 33.8- 30.6---
0426 1:42 am NE 21 36----29.95- 34.0- 30.9---
0426 1:33 amENE 22 30----29.96- 34.0- 30.7---
0426 1:22 am NE 23 29----29.96- 34.0- 30.9---
0426 1:12 am NE 23 30----29.96- 34.0- 30.7---
0426 1:02 am NE 26 34----29.96- 33.8- 30.6---
042612:52 am NE 30 35----29.96- 33.4- 30.4---
042612:42 am NE 29 35----29.96- 33.6- 30.2---
042612:32 am NE 28 34----29.96- 33.8- 30.0---
042612:22 am NE 21 26----29.98- 34.2- 30.4---
042612:12 am NE 19 26----29.98- 34.5- 30.9---
042612:02 am NE 21 28----29.98- 34.5- 30.9---
042511:52 pm NE 25 35----29.98- 34.7- 30.9---
042511:42 pm NE 28 35----29.98- 34.7- 30.7---
042511:32 pm NE 28 35----29.98- 34.9- 31.1---
042511:23 pm NE 28 33----29.98- 34.9- 30.9---
042511:13 pm NE 27 39----29.98- 34.9- 30.9---
042511:02 pm NE 29 39----29.98- 34.7- 30.9---
042510:52 pm NE 28 33----29.99- 34.5- 30.6---
042510:42 pm NE 27 32----30.00- 34.5- 30.4---
042510:32 pmNNE 24 31----30.00- 34.5- 30.4---
042510:22 pmNNE 23 30----30.01- 34.7- 30.4---
042510:12 pmNNE 25 31----30.01- 34.9- 30.6---
042510:02 pm NE 27 31----30.01- 35.1- 30.6---
0425 9:52 pm NE 29 35----30.00- 35.4- 30.7---
0425 9:42 pmNNE 27 35----30.01- 35.6- 30.7---
0425 9:32 pm NE 27 37----30.01- 35.8- 30.9---
0425 9:22 pm NE 29 36----30.00- 36.3- 31.1---
0425 9:12 pmNNE 24 30----30.01- 36.9- 31.5---
0425 9:02 pmNNE 23 33----30.01- 36.5- 31.5---
0425 8:52 pmNNE 25 31----30.01- 36.3- 31.3---
0425 8:42 pmNNE 24 35----30.01- 36.3- 31.3---
0425 8:32 pmNNE 23 32----30.01- 36.3- 31.3---
0425 8:22 pmNNE 26 35----30.01- 36.5- 31.3---
0425 8:12 pm NE 26 36----30.01- 37.0- 31.5---
0425 8:02 pmNNE 24 31----30.02- 37.2- 31.3---
0425 7:52 pm NE 24 40----30.02- 37.9- 31.6---
0425 7:42 pm NE 22 31----30.02- 38.1- 31.5---
0425 7:32 pm NE 21 37----30.03- 38.1- 31.6---
0425 7:22 pm NE 20 30----30.03- 38.3- 31.5---
0425 7:12 pm NE 22 37----30.03- 38.5- 31.5---
0425 7:02 pm NE 21 31----30.04- 38.7- 31.5---
0425 6:52 pm NE 20 32----30.05- 38.8- 31.3---
0425 6:42 pm NE 20 28----30.05- 39.0- 31.5---
0425 6:32 pmENE 18 27----30.05- 39.2- 31.5---
0425 6:22 pm NE 18 28----30.06- 39.2- 31.3---
0425 6:12 pm NE 18 28----30.06- 39.4- 31.3---
0425 6:03 pm NE 18 26----30.06- 39.2- 31.1---
0425 5:52 pmENE 18 27----30.07- 39.0- 31.1---
0425 5:42 pmENE 19 28----30.07- 39.0- 31.3---
0425 5:33 pmENE 19 27----30.07- 38.8- 31.5---
0425 5:22 pmENE 21 30----30.07- 38.5- 31.1---
0425 5:13 pmENE 20 29----30.08- 38.1- 30.9---
0425 5:02 pmENE 21 32----30.08- 38.5- 30.9---
0425 4:52 pmENE 20 30----30.08- 39.0- 30.9---
0425 4:42 pmENE 19 28----30.09- 40.1- 30.9---
0425 4:32 pmENE 19 31----30.09- 40.5- 30.7---
0425 4:22 pmENE 19 25----30.09- 40.8- 30.6---
0425 4:12 pmENE 20 36----30.09- 41.0- 30.6---
0425 3:52 pmENE 20 28----30.10- 40.5- 30.0---
0425 3:42 pmENE 22 30----30.10- 40.1- 30.0---
0425 3:32 pmENE 21 33----30.11- 40.5- 30.0---
0425 3:22 pmENE 15 25----30.11- 41.2- 30.7---
0425 3:12 pmENE 15 26----30.12- 40.8- 30.6---
0425 3:02 pmENE 17 25----30.12- 40.5- 30.0---
0425 2:52 pmENE 17 26----30.12- 40.6- 30.0---
0425 2:42 pmENE 17 24----30.12- 40.8- 29.5---
0425 2:32 pmENE 16 21----30.13- 40.8- 29.3---
0425 2:22 pmENE 16 27----30.13- 40.6- 28.9---
0425 2:12 pmENE 13 21----30.13- 41.4- 29.3---
0425 2:02 pmENE 13 22----30.13- 41.2- 29.1---
0425 1:52 pm E 9 19----30.14- 41.5- 29.7---
0425 1:42 pm E 14 21----30.14- 40.8- 29.1---
0425 1:32 pm NE 16 31----30.14- 39.6- 29.3---
0425 1:22 pm NE 19 32----30.14- 38.8- 28.8---
0425 1:12 pmNNE 18 32----30.14- 38.1- 28.8---
0425 1:03 pm N 18 35----30.14- 37.8- 28.4---
042512:52 pm N 15 25----30.14- 37.8- 28.0---
042512:43 pmNNE 18 31----30.15- 38.1- 28.6---
042512:32 pm N 16 24----30.15- 37.9- 28.0---
042512:22 pmNNE 15 29----30.16- 37.9- 28.0---
042512:12 pm NE 18 26----30.16- 37.9- 28.2---
042512:02 pm NE 16 28----30.16- 37.6- 28.2---
042511:52 amNNE 18 29----30.16- 37.0- 27.3---
042511:43 amNNE 20 27----30.16- 37.2- 27.3---
042511:33 amNNE 19 26----30.16- 36.9- 27.3---
042511:23 amNNE 17 25----30.16- 36.7- 27.1---
042511:12 amNNE 19 26----30.16- 36.3- 27.0---
042511:02 amNNE 20 25----30.16- 36.0- 27.0---
042510:52 am NE 21 29----30.16- 35.6- 27.3---
042510:42 am NE 23 29----30.16- 35.2- 27.1---
042510:32 amNNE 24 30----30.16- 35.2- 27.3---
042510:22 amNNE 22 30----30.16- 35.2- 27.5---
042510:12 amNNE 22 29----30.16- 35.2- 27.7---
042510:02 am NE 21 31----30.17- 35.2- 27.9---
0425 9:52 amNNE 19 24----30.17- 34.9- 28.0---
0425 9:42 am NE 20 25----30.17- 34.7- 28.0---
0425 9:32 am NE 19 24----30.17- 34.7- 28.2---
0425 9:22 am NE 18 24----30.18- 34.9- 28.2---
0425 9:13 am NE 18 26----30.18- 35.1- 28.2---
0425 9:02 am NE 18 26----30.18- 35.1- 27.9---
0425 8:52 am NE 17 24----30.18- 35.2- 28.0---
0425 8:43 am NE 16 24----30.18- 35.4- 28.0---
0425 8:32 am NE 17 23----30.18- 35.4- 28.0---
0425 8:22 am NE 17 22----30.18- 35.4- 27.5---
0425 8:12 am NE 16 25----30.19- 35.4- 27.3---
0425 8:02 am NE 19 24----30.18- 35.6- 27.5---
0425 7:53 amNNE 20 29----30.18- 35.6- 27.7---
0425 7:42 amNNE 20 29----30.18- 35.4- 27.5---
0425 7:33 amNNE 19 26----30.18- 35.2- 27.5---
0425 7:22 amNNE 21 27----30.18- 35.2- 27.3---
0425 7:12 amNNE 20 31----30.18- 35.4- 27.1---
0425 7:02 amNNE 22 33----30.18- 35.8- 27.0---
0425 6:52 amNNE 23 36----30.18- 35.6- 27.0---
0425 6:42 am NE 21 33----30.19- 35.6- 27.1---
0425 6:33 am NE 22 36----30.19- 35.6- 27.3---
0425 6:22 am NE 20 30----30.19- 35.6- 27.3---
0425 6:12 amNNE 21 32----30.19- 35.6- 27.1---
0425 6:03 am NE 22 32----30.19- 35.8- 27.3---
0425 5:52 am NE 23 36----30.19- 35.8- 27.3---

Description of Measurements

Links which are specific to this station are listed below:

Real Time Data in tabular form for the last forty-five days.

Historical Data & Climatic Summaries for quality controlled data for the current month, previous months, and previous years.